DW3735 Weather Reports


Display with metric or nautical units.
time (UTC)temp
F
wind
direction
speed
MPH
gust
MPH
rain 1hr
in
rain 24hr
in
rain mn
in
humidity
%
barometer
mb
20210515072511 49 160 0.0 0.0 0.00 0.00 0.00 57 1019.6
20210515071511 49 160 0.0 0.0 0.00 0.00 0.00 56 1019.5
20210515070511 50 160 0.0 0.0 0.00 0.00 0.00 56 1019.6
20210515065511 50 160 0.0 0.0 0.00 0.00 0.00 56 1019.6
20210515064512 51 160 0.0 0.0 0.00 0.00 0.00 50 1019.5
20210515063511 52 160 0.0 0.0 0.00 0.00 0.00 50 1019.5
20210515062511 53 160 0.0 0.0 0.00 0.00 0.00 47 1019.5
20210515061511 53 160 0.0 0.0 0.00 0.00 0.00 46 1019.4
20210515060511 54 160 0.0 0.0 0.00 0.00 0.00 46 1019.4
20210515055511 54 160 0.0 0.0 0.00 0.00 0.00 46 1019.3
20210515054511 54 160 0.0 0.0 0.00 0.00 0.00 46 1019.2
20210515053511 54 160 0.0 0.0 0.00 0.00 0.00 46 1019.3
20210515052512 53 160 0.0 0.0 0.00 0.00 0.00 48 1019.3
20210515051511 53 160 0.0 0.0 0.00 0.00 0.00 53 1019.3
20210515050511 53 160 0.0 0.0 0.00 0.00 0.00 48 1019.2
20210515045511 53 160 0.0 0.0 0.00 0.00 0.00 53 1019.2
20210515044511 54 160 0.0 0.0 0.00 0.00 0.00 50 1019.1
20210515043511 53 160 0.0 0.0 0.00 0.00 0.00 47 1019.1
20210515042511 53 160 0.0 0.0 0.00 0.00 0.00 50 1019.1
20210515041511 54 160 0.0 0.0 0.00 0.00 0.00 49 1019.1
20210515040511 56 160 0.0 0.0 0.00 0.00 0.00 48 1019.0
20210515035511 57 160 0.0 0.0 0.00 0.00 0.00 46 1019.0
20210515034511 58 160 0.0 2.0 0.00 0.00 0.00 39 1018.9
20210515033511 58 160 0.0 2.0 0.00 0.00 0.00 37 1018.9
20210515032511 57 160 0.0 0.0 0.00 0.00 0.00 39 1019.0
20210515031511 56 160 0.0 5.0 0.00 0.00 0.00 41 1018.9
20210515030511 55 160 1.0 2.0 0.00 0.00 0.00 46 1018.8
20210515025511 55 160 2.0 4.0 0.00 0.00 0.00 48 1018.9
20210515024512 55 160 1.0 5.0 0.00 0.00 0.00 46 1018.8
20210515023511 56 206 0.0 2.0 0.00 0.00 0.00 48 1018.8
20210515022512 57 221 0.0 0.0 0.00 0.00 0.00 41 1018.6
20210515021511 58 234 0.0 0.0 0.00 0.00 0.00 40 1018.6
20210515020511 59 234 0.0 0.0 0.00 0.00 0.00 38 1018.6
20210515015511 60 234 0.0 0.0 0.00 0.00 0.00 36 1018.6
20210515014511 61 234 0.0 0.0 0.00 0.00 0.00 35 1018.6
20210515013511 62 234 0.0 0.0 0.00 0.00 0.00 33 1018.5
20210515012512 63 234 0.0 0.0 0.00 0.00 0.00 32 1018.4
20210515011511 64 234 0.0 0.0 0.00 0.00 0.00 30 1018.3
20210515010511 65 234 0.0 0.0 0.00 0.00 0.00 27 1018.3
20210515005511 66 234 0.0 0.0 0.00 0.00 0.00 26 1018.2
20210515004511 68 234 0.0 0.0 0.00 0.00 0.00 24 1018.1
20210515003511 69 234 0.0 0.0 0.00 0.00 0.00 22 1018.0
20210515002511 69 234 0.0 0.0 0.00 0.00 0.00 21 1018.0
20210515001511 70 234 0.0 2.0 0.00 0.00 0.00 21 1018.0
20210515000511 70 234 0.0 1.0 0.00 0.00 0.00 21 1017.9
20210514235511 71 234 0.0 2.0 0.00 0.00 0.00 22 1017.8
20210514234511 72 234 0.0 2.0 0.00 0.00 0.00 20 1017.7
20210514233511 72 299 2.0 3.0 0.00 0.00 0.00 20 1017.7
20210514232511 73 279 3.0 3.0 0.00 0.00 0.00 22 1017.6
20210514231511 73 27 0.0 4.0 0.00 0.00 0.00 21 1017.6
20210514230511 73 300 0.0 1.0 0.00 0.00 0.00 22 1017.6
20210514225511 73 306 0.0 1.0 0.00 0.00 0.00 20 1017.5
20210514224511 72 256 0.0 3.0 0.00 0.00 0.00 21 1017.6
20210514223511 73 272 1.0 2.0 0.00 0.00 0.00 20 1017.6
20210514222511 75 287 0.0 3.0 0.00 0.00 0.00 19 1017.6
20210514221511 76 313 1.0 2.0 0.00 0.00 0.00 21 1017.6
20210514220511 76 294 2.0 6.0 0.00 0.00 0.00 19 1017.7
20210514215511 76 306 1.0 4.0 0.00 0.00 0.00 20 1017.6
20210514214511 77 303 0.0 4.0 0.00 0.00 0.00 20 1017.6
20210514213511 76 321 2.0 8.0 0.00 0.00 0.00 19 1017.6
20210514212511 75 273 0.0 0.0 0.00 0.00 0.00 22 1017.6
20210514211511 74 85 0.0 0.0 0.00 0.00 0.00 19 1017.6
20210514210511 76 258 0.0 0.0 0.00 0.00 0.00 19 1017.7
20210514205511 76 35 0.0 0.0 0.00 0.00 0.00 23 1017.7
20210514204511 75 305 0.0 0.0 0.00 0.00 0.00 23 1017.7
20210514203511 76 149 0.0 0.0 0.00 0.00 0.00 21 1017.7
20210514202511 75 277 0.0 0.0 0.00 0.00 0.00 21 1017.9
20210514201511 75 333 0.0 0.0 0.00 0.00 0.00 20 1018.0
20210514200511 74 0 0.0 0.0 0.00 0.00 0.00 22 1018.0
20210514195511 73 245 0.0 0.0 0.00 0.00 0.00 21 1018.1
20210514194511 74 243 0.0 0.0 0.00 0.00 0.00 19 1018.2
20210514193511 74 284 0.0 0.0 0.00 0.00 0.00 20 1018.3
20210514192511 75 270 0.0 0.0 0.00 0.00 0.00 19 1018.3
20210514191511 73 234 0.0 0.0 0.00 0.00 0.00 21 1018.3
20210514190511 73 5 0.0 0.0 0.00 0.00 0.00 20 1018.3
20210514185511 74 355 2.0 3.0 0.00 0.00 0.00 22 1018.4
20210514184511 73 351 1.0 3.0 0.00 0.00 0.00 25 1018.4
20210514183513 72 229 0.0 2.0 0.00 0.00 0.00 20 1018.5
20210514182511 73 221 0.0 4.0 0.00 0.00 0.00 18 1018.6
20210514181511 73 280 0.0 2.0 0.00 0.00 0.00 20 1018.6
20210514180511 73 306 0.0 5.0 0.00 0.00 0.00 19 1018.7
20210514175511 73 336 0.0 2.0 0.00 0.00 0.00 28 1018.8
20210514174511 72 331 0.0 4.0 0.00 0.00 0.00 27 1019.0
20210514173511 71 284 1.0 4.0 0.00 0.00 0.00 26 1019.1
20210514172511 72 348 0.0 3.0 0.00 0.00 0.00 21 1019.1
20210514171511 72 299 0.0 5.0 0.00 0.00 0.00 22 1019.1
20210514170511 72 263 3.0 6.0 0.00 0.00 0.00 23 1019.2
20210514165512 73 336 2.0 6.0 0.00 0.00 0.00 24 1019.1
20210514164511 73 295 3.0 6.0 0.00 0.00 0.00 23 1019.2
20210514163511 72 302 2.0 10.0 0.00 0.00 0.00 21 1019.3
20210514162511 73 333 4.0 6.0 0.00 0.00 0.00 24 1019.4
20210514161511 74 265 3.0 5.0 0.00 0.00 0.00 24 1019.4
20210514160511 73 15 2.0 6.0 0.00 0.00 0.00 25 1019.5
20210514155511 73 333 3.0 6.0 0.00 0.00 0.00 25 1019.6
20210514154511 73 349 2.0 7.0 0.00 0.00 0.00 27 1019.9
20210514153511 72 232 3.0 4.0 0.00 0.00 0.00 28 1019.9
20210514152511 71 341 0.0 3.0 0.00 0.00 0.00 34 1020.0
20210514151511 69 345 2.0 2.0 0.00 0.00 0.00 32 1020.1
20210514150511 69 292 2.0 4.0 0.00 0.00 0.00 32 1020.2
20210514145511 67 296 0.0 3.0 0.00 0.00 0.00 37 1020.2
20210514144511 66 17 0.0 0.0 0.00 0.00 0.00 41 1020.3
20210514143511 65 17 0.0 0.0 0.00 0.00 0.00 47 1020.3
20210514142511 64 17 0.0 0.0 0.00 0.00 0.00 42 1020.3
20210514141511 64 17 0.0 0.0 0.00 0.00 0.00 42 1020.3
20210514140511 62 17 0.0 0.0 0.00 0.00 0.00 46 1020.4
20210514135511 61 17 0.0 0.0 0.00 0.00 0.00 47 1020.4
20210514134511 59 17 0.0 0.0 0.00 0.00 0.00 55 1020.5
20210514133511 58 17 0.0 0.0 0.00 0.00 0.00 57 1020.7
20210514132511 56 17 0.0 0.0 0.00 0.00 0.00 59 1020.7
20210514131511 54 17 0.0 0.0 0.00 0.00 0.00 65 1020.7
20210514125511 52 17 0.0 0.0 0.00 0.00 0.00 78 1020.8
20210514124511 51 17 0.0 0.0 0.00 0.00 0.00 78 1020.8
20210514123511 50 17 0.0 0.0 0.00 0.00 0.00 79 1020.8
20210514122519 49 17 0.0 0.0 0.00 0.00 0.00 81 1020.8
20210514121519 48 17 0.0 0.0 0.00 0.00 0.00 79 1020.8
20210514120519 46 17 0.0 0.0 0.00 0.00 0.00 83 1020.8
20210514115519 45 17 0.0 0.0 0.00 0.00 0.00 92 1020.8
20210514114519 44 17 0.0 0.0 0.00 0.00 0.00 94 1020.8
20210514113519 43 17 0.0 0.0 0.00 0.00 0.00 94 1020.8
20210514112518 42 17 0.0 0.0 0.00 0.00 0.00 95 1020.7
20210514111519 42 134 0.0 0.0 0.00 0.00 0.00 95 1020.8
20210514110518 41 134 0.0 0.0 0.00 0.00 0.00 95 1020.7
20210514105518 41 134 0.0 0.0 0.00 0.00 0.00 95 1020.6
20210514104518 40 134 0.0 0.0 0.00 0.00 0.00 94 1020.5
20210514103519 40 134 0.0 0.0 0.00 0.00 0.00 90 1020.5
20210514102518 40 134 0.0 0.0 0.00 0.00 0.00 89 1020.5
20210514101519 40 134 0.0 0.0 0.00 0.00 0.00 87 1020.5
20210514100518 40 134 0.0 0.0 0.00 0.00 0.00 86 1020.3
20210514095518 40 134 0.0 0.0 0.00 0.00 0.00 87 1020.3
20210514094518 40 134 0.0 0.0 0.00 0.00 0.00 86 1020.3
20210514093519 40 134 0.0 0.0 0.00 0.00 0.00 85 1020.3
20210514092518 40 134 0.0 0.0 0.00 0.00 0.00 83 1020.3
20210514091518 41 134 0.0 0.0 0.00 0.00 0.00 83 1020.3
20210514090518 41 134 0.0 0.0 0.00 0.00 0.00 83 1020.2
20210514085519 41 134 0.0 0.0 0.00 0.00 0.00 82 1020.2
20210514084518 42 134 0.0 0.0 0.00 0.00 0.00 82 1020.1
20210514083518 42 134 0.0 0.0 0.00 0.00 0.00 81 1020.2
20210514082518 42 134 0.0 0.0 0.00 0.00 0.00 81 1020.3
20210514081518 42 134 0.0 0.0 0.00 0.00 0.00 81 1020.3
20210514080518 43 134 0.0 0.0 0.00 0.00 0.00 81 1020.3
20210514075518 43 134 0.0 0.0 0.00 0.00 0.00 81 1020.3
20210514074518 43 134 0.0 0.0 0.00 0.00 0.00 80 1020.3
20210514073519 43 134 0.0 0.0 0.00 0.00 0.00 79 1020.3